UAL242 PGUM-PGSN

Flight info

Callsign UAL242
Flight time N/A
Altitude 31000
Route EVEBE STINE/N0492F300 KORDY
Aircraft B38M/M-SDE1FGHILORVWXY/HB1

Departure

Time 2026-04-15 03:46
Airport Antonio B. Won Pat International Airport (PGUM)

Arrival

Time N/A
Airport Saipan International Airport (PGSN)
Time Latitude Longitude Altitude Speed Heading
2026-04-15 03:18 13.49268 144.80714 302 ft 0 kts 332°
2026-04-15 03:20 13.49267 144.80714 302 ft 0 kts 332°
2026-04-15 03:28 13.49265 144.80715 301 ft 1 kts 332°
2026-04-15 03:28 13.49250 144.80723 301 ft 3 kts 335°
2026-04-15 03:28 13.49231 144.80732 301 ft 3 kts 340°
2026-04-15 03:28 13.49212 144.80738 303 ft 3 kts 347°
2026-04-15 03:29 13.49192 144.80741 299 ft 3 kts
2026-04-15 03:29 13.49174 144.80738 301 ft 3 kts 31°
2026-04-15 03:29 13.49165 144.80730 299 ft 1 kts 61°
2026-04-15 03:32 13.49175 144.80748 300 ft 5 kts 61°
2026-04-15 03:32 13.49199 144.80794 299 ft 9 kts 61°
2026-04-15 03:32 13.49235 144.80862 300 ft 13 kts 61°
2026-04-15 03:32 13.49285 144.80955 302 ft 16 kts 61°
2026-04-15 03:33 13.49367 144.81007 303 ft 14 kts 342°
2026-04-15 03:33 13.49395 144.81035 303 ft 4 kts 107°
2026-04-15 03:33 13.49385 144.81043 301 ft 0 kts 160°
2026-04-15 03:33 13.49383 144.81044 301 ft 0 kts 160°
2026-04-15 03:36 13.49369 144.81049 301 ft 5 kts 160°
2026-04-15 03:36 13.49340 144.81045 301 ft 5 kts 198°
2026-04-15 03:36 13.49305 144.81030 301 ft 6 kts 202°
2026-04-15 03:36 13.49261 144.81011 302 ft 8 kts 204°
2026-04-15 03:37 13.49237 144.81000 301 ft 0 kts 204°
2026-04-15 03:37 13.49238 144.81000 301 ft 0 kts 204°
2026-04-15 03:39 13.49236 144.80999 301 ft 1 kts 204°
2026-04-15 03:39 13.49214 144.80989 303 ft 5 kts 204°
2026-04-15 03:39 13.49176 144.80971 301 ft 5 kts 206°
2026-04-15 03:39 13.49173 144.80970 301 ft 0 kts 206°
2026-04-15 03:42 13.49172 144.80969 301 ft 0 kts 206°
2026-04-15 03:42 13.49169 144.80968 301 ft 1 kts 206°
2026-04-15 03:42 13.49143 144.80956 301 ft 7 kts 197°
2026-04-15 03:42 13.49073 144.80937 303 ft 14 kts 194°
2026-04-15 03:43 13.49029 144.80885 300 ft 1 kts 244°
2026-04-15 03:43 13.49028 144.80884 300 ft 0 kts 244°
2026-04-15 03:45 13.49019 144.80864 300 ft 9 kts 244°
2026-04-15 03:45 13.48861 144.80517 295 ft 97 kts 245°
2026-04-15 03:45 13.48470 144.79712 648 ft 145 kts 245°
2026-04-15 03:46 13.47915 144.78737 1505 ft 165 kts 239°
2026-04-15 03:46 13.47238 144.77821 2766 ft 159 kts 238°
2026-04-15 03:46 13.46496 144.76845 3271 ft 186 kts 238°
2026-04-15 03:46 13.45785 144.75689 3975 ft 196 kts 253°
2026-04-15 03:47 13.45627 144.74279 4699 ft 205 kts 277°
2026-04-15 03:47 13.46130 144.72862 5356 ft 223 kts 297°
2026-04-15 03:47 13.47275 144.71693 6189 ft 245 kts 317°
2026-04-15 03:47 13.48923 144.71009 6988 ft 270 kts 339°
2026-04-15 03:48 13.50878 144.71073 7799 ft 297 kts
2026-04-15 03:48 13.52828 144.71993 8620 ft 325 kts 30°
2026-04-15 03:48 13.54295 144.73850 9398 ft 347 kts 60°
2026-04-15 03:48 13.55047 144.76237 10124 ft 356 kts 73°
2026-04-15 03:49 13.55806 144.78684 10605 ft 373 kts 69°
2026-04-15 03:49 13.56711 144.81281 11067 ft 389 kts 68°
2026-04-15 03:49 13.57671 144.83930 11623 ft 401 kts 68°
2026-04-15 03:49 13.58658 144.86605 12266 ft 410 kts 67°
2026-04-15 03:50 13.59677 144.89360 13035 ft 414 kts 67°
2026-04-15 03:50 13.60708 144.92146 13727 ft 420 kts 68°
2026-04-15 03:50 13.61748 144.94964 14521 ft 422 kts 68°
2026-04-15 03:50 13.62439 144.96838 14992 ft 425 kts 68°
2026-04-15 03:51 13.63507 144.99692 15553 ft 431 kts 66°
2026-04-15 03:51 13.64509 145.02594 16283 ft 432 kts 73°
2026-04-15 03:51 13.65425 145.05566 16751 ft 438 kts 73°
2026-04-15 03:51 13.66368 145.08545 17379 ft 440 kts 72°
2026-04-15 03:52 13.67325 145.11542 17961 ft 441 kts 73°
2026-04-15 03:52 13.68289 145.14548 18514 ft 444 kts 72°
2026-04-15 03:52 13.69259 145.17569 19088 ft 447 kts 72°
2026-04-15 03:52 13.70235 145.20613 19692 ft 449 kts 72°
2026-04-15 03:53 13.71214 145.23665 20293 ft 450 kts 72°
2026-04-15 03:53 13.72197 145.26731 20918 ft 452 kts 73°
2026-04-15 03:53 13.73182 145.29808 21534 ft 453 kts 73°
2026-04-15 03:53 13.74168 145.32885 22150 ft 454 kts 73°
2026-04-15 03:54 13.75157 145.35974 22771 ft 455 kts 73°
2026-04-15 03:54 13.76146 145.39065 23314 ft 456 kts 73°
2026-04-15 03:54 13.77137 145.42164 23830 ft 456 kts 73°
2026-04-15 03:55 13.79118 145.48364 24864 ft 457 kts 73°
2026-04-15 03:55 13.80111 145.51471 25395 ft 457 kts 73°
2026-04-15 03:55 13.81090 145.54536 25896 ft 457 kts 74°
2026-04-15 03:55 13.82081 145.57645 26435 ft 457 kts 74°
2026-04-15 03:56 13.83070 145.60747 26962 ft 457 kts 75°
2026-04-15 03:56 13.84059 145.63850 27487 ft 456 kts 75°
2026-04-15 03:56 13.85047 145.66951 28007 ft 456 kts 75°
2026-04-15 03:56 13.86035 145.70052 28526 ft 456 kts 75°
2026-04-15 03:57 13.87022 145.73154 29024 ft 455 kts 75°
2026-04-15 03:57 13.88010 145.76256 29527 ft 455 kts 75°
2026-04-15 03:57 13.88991 145.79344 29937 ft 454 kts 76°
2026-04-15 03:57 13.89974 145.82436 30327 ft 455 kts 76°
2026-04-15 03:58 13.90963 145.85555 30426 ft 464 kts 76°
2026-04-15 03:58 13.91979 145.88756 30390 ft 475 kts 76°
2026-04-15 03:58 13.93015 145.92018 30397 ft 484 kts 75°
2026-04-15 03:59 13.95144 145.98732 30396 ft 501 kts 76°
2026-04-15 03:59 13.97337 146.05655 30402 ft 516 kts 75°
2026-04-15 04:00 13.99584 146.12759 30418 ft 527 kts 76°
2026-04-15 04:00 14.01859 146.19953 30423 ft 532 kts 76°
2026-04-15 04:01 14.04152 146.27217 30432 ft 533 kts 76°
2026-04-15 04:01 14.06438 146.34466 30436 ft 529 kts 77°
2026-04-15 04:02 14.08703 146.41655 30442 ft 527 kts 77°
2026-04-15 04:02 14.10964 146.48845 30423 ft 527 kts 77°
2026-04-15 04:03 14.13226 146.56042 30436 ft 527 kts 76°
2026-04-15 04:03 14.15485 146.63236 30445 ft 527 kts 76°
2026-04-15 04:04 14.17739 146.70425 30446 ft 528 kts 76°
2026-04-15 04:04 14.19991 146.77620 30454 ft 528 kts 76°
2026-04-15 04:05 14.22242 146.84813 30449 ft 527 kts 76°
2026-04-15 04:05 14.24464 146.91924 30461 ft 523 kts 77°
2026-04-15 04:06 14.26690 146.99058 30476 ft 523 kts 77°
2026-04-15 04:06 14.28917 147.06197 30479 ft 523 kts 77°
2026-04-15 04:06 14.30407 147.09633 30445 ft 530 kts 60°
2026-04-15 04:07 14.32841 147.12508 30468 ft 537 kts 41°
2026-04-15 04:07 14.36019 147.14519 30481 ft 536 kts 22°
2026-04-15 04:07 14.39624 147.15451 30466 ft 534 kts
2026-04-15 04:07 14.43301 147.15220 30471 ft 529 kts 343°
2026-04-15 04:08 14.46771 147.14035 30470 ft 523 kts 332°
2026-04-15 04:08 14.49869 147.12215 30444 ft 517 kts 317°
2026-04-15 04:08 14.52415 147.09666 30468 ft 503 kts 300°
2026-04-15 04:08 14.54093 147.06595 30456 ft 483 kts 283°
2026-04-15 04:09 14.55150 147.03326 30440 ft 482 kts 283°
2026-04-15 04:09 14.57611 146.96847 30439 ft 485 kts 285°
2026-04-15 04:10 14.60061 146.90358 30426 ft 485 kts 284°
2026-04-15 04:10 14.62504 146.83877 30434 ft 484 kts 284°
2026-04-15 04:11 14.65042 146.77501 30386 ft 483 kts 292°
2026-04-15 04:11 14.67084 146.74683 30233 ft 498 kts 308°
2026-04-15 04:11 14.69794 146.72393 29987 ft 511 kts 322°
2026-04-15 04:11 14.72952 146.70656 29634 ft 515 kts 325°
2026-04-15 04:12 14.76063 146.68843 29067 ft 512 kts 323°
2026-04-15 04:12 14.79102 146.67014 28438 ft 512 kts 323°
2026-04-15 04:12 14.82167 146.65142 27726 ft 512 kts 322°
2026-04-15 04:12 14.85229 146.63256 27025 ft 513 kts 322°
2026-04-15 04:13 14.88299 146.61364 26334 ft 514 kts 322°
2026-04-15 04:13 14.91376 146.59468 25680 ft 516 kts 322°
2026-04-15 04:13 14.94455 146.57570 24991 ft 511 kts 322°
2026-04-15 04:13 14.97485 146.55715 24045 ft 502 kts 322°
2026-04-15 04:14 15.00465 146.53885 23145 ft 494 kts 321°
2026-04-15 04:14 15.03403 146.52076 22128 ft 487 kts 321°
2026-04-15 04:14 15.06290 146.50297 21148 ft 479 kts 321°
2026-04-15 04:14 15.09124 146.48556 20458 ft 465 kts 320°
2026-04-15 04:15 15.11870 146.46867 19797 ft 453 kts 320°
2026-04-15 04:15 15.14510 146.45239 19153 ft 442 kts 320°
2026-04-15 04:15 15.17131 146.43622 18489 ft 433 kts 320°
2026-04-15 04:15 15.19691 146.42041 17862 ft 425 kts 319°
2026-04-15 04:16 15.22216 146.40482 17205 ft 418 kts 319°
2026-04-15 04:16 15.24711 146.38943 16465 ft 415 kts 320°
2026-04-15 04:16 15.27174 146.37419 15740 ft 411 kts 319°
2026-04-15 04:16 15.29627 146.35901 15004 ft 408 kts 319°
2026-04-15 04:17 15.32054 146.34399 14307 ft 405 kts 319°
2026-04-15 04:17 15.34462 146.32908 13633 ft 402 kts 319°
2026-04-15 04:17 15.36830 146.31404 12988 ft 393 kts 313°
2026-04-15 04:17 15.38692 146.29499 12110 ft 363 kts 291°
2026-04-15 04:18 15.39683 146.27228 11260 ft 331 kts 269°
2026-04-15 04:18 15.39821 146.24999 10505 ft 302 kts 250°
2026-04-15 04:18 15.39291 146.22993 9837 ft 278 kts 235°
2026-04-15 04:18 15.38436 146.21236 9206 ft 269 kts 232°
2026-04-15 04:19 15.37527 146.19567 8475 ft 263 kts 230°
2026-04-15 04:19 15.36577 146.17970 7783 ft 258 kts 228°
2026-04-15 04:19 15.35608 146.16435 7211 ft 250 kts 227°
2026-04-15 04:19 15.34653 146.14970 6704 ft 241 kts 228°
2026-04-15 04:20 15.33732 146.13587 6310 ft 225 kts 225°
2026-04-15 04:20 15.32851 146.12289 5852 ft 215 kts 224°
2026-04-15 04:20 15.32028 146.11044 5510 ft 204 kts 225°
2026-04-15 04:20 15.31234 146.09879 5105 ft 194 kts 222°
2026-04-15 04:21 15.30445 146.08761 4718 ft 190 kts 223°
2026-04-15 04:21 15.29682 146.07663 4292 ft 185 kts 223°
2026-04-15 04:21 15.28952 146.06608 3935 ft 174 kts 220°
2026-04-15 04:21 15.28247 146.05623 3490 ft 170 kts 223°
2026-04-15 04:22 15.27607 146.04639 3139 ft 157 kts 219°
2026-04-15 04:22 15.26976 146.03751 2953 ft 149 kts 220°
2026-04-15 04:22 15.26375 146.02900 2605 ft 144 kts 220°
2026-04-15 04:22 15.25798 146.02079 2405 ft 141 kts 219°
2026-04-15 04:23 15.25216 146.01248 2378 ft 143 kts 219°
2026-04-15 04:23 15.24631 146.00410 2375 ft 144 kts 219°
2026-04-15 04:23 15.24050 145.99575 2373 ft 144 kts 220°
2026-04-15 04:23 15.23470 145.98741 2360 ft 143 kts 213°
2026-04-15 04:24 15.22864 145.97908 2467 ft 144 kts 220°
2026-04-15 04:24 15.22291 145.97073 2414 ft 141 kts 219°
2026-04-15 04:24 15.21727 145.96254 2365 ft 138 kts 219°
2026-04-15 04:24 15.21169 145.95446 2328 ft 138 kts 219°
2026-04-15 04:25 15.20602 145.94633 2232 ft 140 kts 218°
2026-04-15 04:25 15.20114 145.93710 2099 ft 155 kts 228°
2026-04-15 04:25 15.19707 145.92667 1934 ft 157 kts 226°
2026-04-15 04:25 15.19294 145.91625 1783 ft 156 kts 226°
2026-04-15 04:26 15.18886 145.90591 1641 ft 155 kts 227°
2026-04-15 04:26 15.18481 145.89559 1469 ft 153 kts 226°
2026-04-15 04:26 15.18099 145.88581 1313 ft 140 kts 226°
2026-04-15 04:26 15.17750 145.87681 1176 ft 129 kts 225°
2026-04-15 04:27 15.17433 145.86861 1100 ft 118 kts 222°
2026-04-15 04:27 15.17124 145.86086 1113 ft 116 kts 221°
2026-04-15 04:27 15.16827 145.85348 1010 ft 107 kts 220°
2026-04-15 04:27 15.16535 145.84646 748 ft 107 kts 223°
2026-04-15 04:28 15.16237 145.83909 703 ft 114 kts 226°
2026-04-15 04:28 15.15936 145.83131 687 ft 117 kts 228°
2026-04-15 04:28 15.15637 145.82363 668 ft 113 kts 227°
2026-04-15 04:28 15.15348 145.81645 638 ft 102 kts 226°
2026-04-15 04:29 15.15034 145.80975 555 ft 101 kts 224°
2026-04-15 04:29 15.14766 145.80253 459 ft 109 kts 230°
2026-04-15 04:29 15.14496 145.79527 548 ft 108 kts 227°
2026-04-15 04:29 15.14299 145.78721 492 ft 128 kts 247°
2026-04-15 04:30 15.13883 145.78294 15 ft 50 kts 116°